Home > Weather > MD of Lunenburg > Past weeks

Flag for Canada Past Weather in MD of Lunenburg, Nova Scotia, Canada — Yesterday and Last 2 Weeks

Now
66 °F

Mild.


Feels Like: 66 °F
Forecast: N/A
Wind: 5 mph from West

Location: McNabs Island - AUT

Current Time: Aug 29, 2016 at 8:42:32 PM

Latest Report: Aug 29, 2016 at 8:00 PM


Visibility: N/A

Pressure: 29.83 "Hg

Humidity: 88%

Dew Point: 62 °F

Location of MD of LunenburgLocation

Past Weather in MD of Lunenburg — Graph

°F

MD of Lunenburg Temperature Yesterday

Maximum temperature yesterday: 69 °F (at 12:00 PM)
Minimum temperature yesterday: 57 °F (at 7:00 AM)
Average temperature yesterday: 63 °F

High & Low Weather Summary for the Past Weeks

 TemperatureHumidityPressure
High80 °F (Aug 19, 2:00 PM)99% (Aug 27, 12:00 AM)30.32 "Hg (Aug 27, 12:00 AM)
Low57 °F (Aug 28, 7:00 AM)34% (Aug 23, 4:00 PM)29.65 "Hg (Aug 17, 5:00 PM)
Average67 °F81%30.00 "Hg
* Reported Aug 14 7:00 PM — Aug 29 7:00 PM, MD of Lunenburg, Weather by CustomWeather, © 2016

Note: Actual official high and low records may vary slightly from our data, if they occured in-between our weather recording intervals... More about our weather records

Advertising

MD of Lunenburg Weather History for the Previous 24 Hours

Scroll right to see more
 ConditionsComfort  
Time TempWeatherWind HumidityBarometerVisibility
7:00 PM
Mon, Aug 29
67 °FMild.12 mph87%29.80 "HgN/A
6:00 PM67 °FMild.18 mph87%29.80 "HgN/A
5:00 PM67 °FMild.16 mph86%29.82 "HgN/A
4:00 PM66 °FMild.18 mph89%29.84 "HgN/A
3:00 PM66 °FMild.22 mph88%29.86 "HgN/A
2:00 PM65 °FMild.23 mph89%29.87 "HgN/A
1:00 PM68 °FMild.22 mph78%29.90 "HgN/A
12:00 PM65 °FMild.21 mph85%29.93 "HgN/A
11:00 AM67 °FMild.17 mph79%29.97 "HgN/A
10:00 AM67 °FMild.15 mph86%29.99 "HgN/A
9:00 AM66 °FMild.14 mph81%30.01 "HgN/A
8:00 AM65 °FMild.10 mph88%30.04 "HgN/A
7:00 AM65 °FMild.9 mph88%30.07 "HgN/A
6:00 AM65 °FMild.9 mph88%30.08 "HgN/A
5:00 AM64 °FMild.13 mph91%30.09 "HgN/A
4:00 AM64 °FMild.9 mph90%30.11 "HgN/A
3:00 AM64 °FMild.8 mph90%30.13 "HgN/A
2:00 AM64 °FMild.6 mph89%30.16 "HgN/A
1:00 AM63 °FMild.5 mph90%30.17 "HgN/A
12:00 AM62 °FCool.5 mph95%30.19 "HgN/A
11:00 PM
Sun, Aug 28
62 °FCool.2 mph89%30.21 "HgN/A
10:00 PM62 °FCool.5 mph94%30.22 "HgN/A
9:00 PM62 °FCool.7 mph93%30.22 "HgN/A
8:00 PM64 °FMild.8 mph87%30.23 "HgN/A
Weather by CustomWeather, © 2016

See weather overviewHow to use our weather pages